QPF
0.00 0.00 0.00 0.00 0.01 0.01 0.01 0.01 0.01 0.00 0.00 0.01 0.01 0.01 0.01 0.01 0.01 0.01 0.01 0.01 0.01 0.01 0.01 0.01 0.01 0.01 0.01 0.00 0.00 0.00 0.00 0.00 0.00 0.00 0.00 0.00 0.00 0.01 0.01 0.02 0.03 0.04 0.05 0.03
0.00 0.00 0.00 0.00 0.01 0.01 0.01 0.01 0.01 0.00 0.00 0.01 0.01 0.01 0.01 0.02 0.01 0.00 0.00 0.00 0.01 0.01 0.01 0.01 0.01 0.01 0.01 0.01 0.01 0.00 0.00 0.00 0.00 0.00 0.00 0.00 0.00 0.01 0.02 0.02 0.02 0.03 0.04 0.04
0.00 0.00 0.00 0.00 0.00 0.00 0.01 0.01 0.01 0.01 0.01 0.01 0.02 0.02 0.01 0.01 0.02 0.01 0.00 0.00 0.00 0.01 0.01 0.02 0.02 0.01 0.01 0.01 0.01 0.01 0.00 0.00 0.00 0.00 0.00 0.00 0.01 0.01 0.02 0.03 0.03 0.03 0.04 0.04
0.00 0.00 0.00 0.00 0.00 0.00 0.00 0.00 0.01 0.01 0.01 0.02 0.02 0.03 0.01 0.01 0.01 0.01 0.01 0.00 0.00 0.00 0.01 0.01 0.02 0.01 0.01 0.01 0.01 0.01 0.00 0.01 0.00 0.00 0.00 0.00 0.00 0.01 0.01 0.02 0.03 0.04 0.04 0.04
0.00 0.00 0.00 0.01 0.01 0.01 0.01 0.00 0.00 0.01 0.01 0.02 0.02 0.02 0.01 0.00 0.01 0.01 0.01 0.01 0.01 0.00 0.01 0.01 0.02 0.02 0.01 0.01 0.01 0.01 0.00 0.01 0.00 0.01 0.01 0.01 0.01 0.01 0.02 0.03 0.04 0.06 0.06 0.05
0.00 0.00 0.00 0.00 0.00 0.01 0.01 0.01 0.01 0.01 0.02 0.03 0.01 0.02 0.01 0.01 0.01 0.01 0.01 0.01 0.01 0.01 0.01 0.01 0.02 0.02 0.02 0.01 0.01 0.01 0.01 0.01 0.01 0.01 0.01 0.01 0.01 0.01 0.02 0.03 0.04 0.05 0.06 0.07
0.00 0.00 0.00 0.00 0.01 0.01 0.01 0.02 0.03 0.04 0.04 0.02 0.00 0.01 0.01 0.00 0.00 0.01 0.01 0.01 0.01 0.01 0.01 0.01 0.02 0.02 0.02 0.02 0.02 0.01 0.01 0.00 0.00 0.00 0.01 0.01 0.01 0.02 0.02 0.03 0.04 0.05 0.05 0.05
0.01 0.00 0.00 0.00 0.00 0.01 0.01 0.02 0.03 0.03 0.02 0.01 0.01 0.01 0.01 0.00 0.00 0.00 0.01 0.01 0.01 0.01 0.01 0.02 0.02 0.02 0.01 0.02 0.02 0.01 0.00 0.00 0.00 0.00 0.01 0.01 0.02 0.02 0.02 0.02 0.03 0.04 0.05 0.05
0.02 0.00 0.00 0.00 0.00 0.00 0.01 0.01 0.02 0.03 0.02 0.01 0.01 0.01 0.00 0.00 0.00 0.01 0.01 0.01 0.01 0.01 0.01 0.02 0.03 0.03 0.01 0.01 0.01 0.01 0.01 0.00 0.00 0.00 0.01 0.01 0.02 0.02 0.02 0.02 0.03 0.04 0.04 0.04
0.02 0.01 0.00 0.00 0.00 0.01 0.01 0.01 0.02 0.03 0.03 0.02 0.01 0.00 0.00 0.00 0.00 0.01 0.01 0.00 0.01 0.01 0.01 0.02 0.03 0.03 0.02 0.01 0.01 0.01 0.01 0.01 0.00 0.00 0.00 0.01 0.01 0.01 0.02 0.02 0.03 0.03 0.03 0.03
0.01 0.02 0.01 0.01 0.01 0.01 0.01 0.01 0.02 0.02 0.03 0.03 0.02 0.02 0.01 0.00 0.00 0.01 0.01 0.00 0.01 0.02 0.01 0.02 0.02 0.03 0.02 0.01 0.01 0.01 0.01 0.01 0.01 0.00 0.00 0.01 0.01 0.01 0.02 0.02 0.02 0.03 0.03 0.03
0.01 0.02 0.01 0.01 0.01 0.01 0.01 0.01 0.01 0.02 0.02 0.02 0.04 0.03 0.01 0.01 0.01 0.01 0.01 0.01 0.01 0.01 0.01 0.01 0.01 0.02 0.01 0.01 0.01 0.01 0.01 0.01 0.01 0.01 0.01 0.01 0.01 0.01 0.01 0.02 0.02 0.03 0.04 0.04
0.03 0.03 0.02 0.02 0.02 0.01 0.01 0.01 0.01 0.02 0.03 0.03 0.03 0.03 0.02 0.01 0.01 0.01 0.01 0.01 0.01 0.02 0.02 0.01 0.01 0.01 0.00 0.00 0.01 0.01 0.01 0.01 0.01 0.01 0.01 0.01 0.01 0.01 0.01 0.02 0.03 0.04 0.03 0.03
0.02 0.02 0.01 0.01 0.01 0.01 0.02 0.01 0.01 0.02 0.03 0.02 0.02 0.02 0.03 0.02 0.02 0.02 0.01 0.01 0.01 0.01 0.01 0.01 0.01 0.00 0.00 0.00 0.00 0.01 0.01 0.01 0.01 0.01 0.02 0.01 0.01 0.01 0.01 0.02 0.03 0.03 0.02 0.02
0.01 0.02 0.01 0.00 0.00 0.01 0.01 0.01 0.01 0.01 0.01 0.02 0.01 0.01 0.02 0.03 0.03 0.02 0.02 0.01 0.01 0.01 0.01 0.01 0.00 0.00 0.00 0.00 0.00 0.00 0.01 0.01 0.01 0.01 0.01 0.01 0.02 0.02 0.02 0.03 0.03 0.03 0.03 0.02
0.01 0.02 0.01 0.01 0.01 0.01 0.01 0.01 0.01 0.01 0.01 0.02 0.01 0.02 0.03 0.03 0.02 0.03 0.02 0.01 0.01 0.01 0.01 0.01 0.00 0.00 0.00 0.00 0.00 0.00 0.01 0.01 0.01 0.01 0.02 0.02 0.03 0.03 0.02 0.02 0.02 0.03 0.04 0.03
0.02 0.03 0.03 0.02 0.00 0.01 0.01 0.01 0.01 0.02 0.01 0.01 0.01 0.03 0.04 0.03 0.03 0.03 0.02 0.02 0.01 0.01 0.01 0.00 0.00 0.00 0.00 0.00 0.00 0.00 0.01 0.01 0.01 0.02 0.02 0.02 0.02 0.02 0.02 0.02 0.02 0.04 0.04 0.03
0.01 0.02 0.04 0.04 0.02 0.02 0.01 0.01 0.01 0.01 0.01 0.01 0.02 0.03 0.04 0.03 0.03 0.03 0.03 0.02 0.01 0.01 0.01 0.00 0.00 0.01 0.01 0.01 0.00 0.01 0.01 0.01 0.01 0.01 0.02 0.02 0.02 0.02 0.02 0.03 0.03 0.04 0.04 0.03
0.01 0.02 0.05 0.05 0.03 0.02 0.01 0.01 0.01 0.01 0.02 0.02 0.02 0.02 0.03 0.03 0.02 0.02 0.02 0.02 0.01 0.01 0.01 0.01 0.01 0.01 0.02 0.01 0.01 0.01 0.01 0.01 0.01 0.01 0.02 0.02 0.02 0.02 0.02 0.03 0.04 0.04 0.05 0.03
0.01 0.02 0.05 0.05 0.03 0.02 0.01 0.01 0.01 0.01 0.01 0.01 0.01 0.02 0.02 0.02 0.02 0.02 0.02 0.02 0.01 0.01 0.01 0.01 0.01 0.01 0.02 0.02 0.01 0.01 0.01 0.01 0.01 0.02 0.02 0.02 0.02 0.03 0.03 0.02 0.03 0.05 0.05 0.04
0.02 0.03 0.04 0.03 0.03 0.02 0.01 0.01 0.00 0.01 0.02 0.01 0.02 0.02 0.02 0.02 0.03 0.03 0.03 0.03 0.02 0.02 0.02 0.01 0.02 0.02 0.03 0.02 0.01 0.01 0.01 0.01 0.01 0.02 0.02 0.02 0.02 0.02 0.03 0.03 0.04 0.05 0.06 0.05
0.01 0.02 0.02 0.02 0.03 0.02 0.01 0.01 0.01 0.02 0.02 0.02 0.02 0.02 0.02 0.03 0.03 0.03 0.03 0.03 0.03 0.03 0.02 0.02 0.02 0.03 0.04 0.03 0.02 0.02 0.02 0.02 0.01 0.01 0.01 0.02 0.02 0.02 0.02 0.03 0.04 0.05 0.06 0.07
0.01 0.02 0.02 0.02 0.02 0.01 0.01 0.02 0.02 0.02 0.02 0.02 0.02 0.02 0.02 0.02 0.03 0.03 0.03 0.03 0.03 0.03 0.03 0.03 0.03 0.03 0.04 0.04 0.02 0.01 0.01 0.01 0.01 0.01 0.01 0.02 0.02 0.02 0.02 0.03 0.03 0.03 0.05 0.07
0.01 0.01 0.02 0.03 0.02 0.01 0.02 0.02 0.02 0.02 0.02 0.02 0.02 0.02 0.02 0.02 0.02 0.02 0.03 0.03 0.03 0.03 0.03 0.03 0.02 0.03 0.04 0.04 0.02 0.02 0.01 0.01 0.01 0.01 0.01 0.02 0.02 0.02 0.02 0.02 0.02 0.03 0.04 0.05
0.01 0.02 0.02 0.02 0.01 0.01 0.01 0.01 0.01 0.01 0.01 0.01 0.01 0.01 0.01 0.02 0.02 0.02 0.02 0.03 0.03 0.03 0.03 0.03 0.03 0.03 0.03 0.03 0.03 0.02 0.01 0.01 0.01 0.01 0.01 0.01 0.01 0.01 0.02 0.01 0.02 0.02 0.03 0.04
0.01 0.01 0.02 0.01 0.01 0.02 0.02 0.01 0.01 0.01 0.01 0.01 0.01 0.01 0.01 0.01 0.02 0.02 0.02 0.02 0.02 0.02 0.03 0.03 0.03 0.03 0.03 0.03 0.02 0.02 0.01 0.01 0.01 0.01 0.01 0.01 0.01 0.01 0.02 0.02 0.01 0.02 0.02 0.03
MSLP
1021.16 1021.10 1020.99 1020.91 1020.90 1021.00 1021.22 1021.53 1021.90 1022.24 1022.49 1022.61 1022.56 1022.35 1022.00 1021.58 1021.14 1020.75 1020.45 1020.28 1020.22 1020.28 1020.43 1020.63 1020.87 1021.12 1021.37 1021.61 1021.84 1022.07 1022.28 1022.47 1022.63 1022.73 1022.77 1022.73 1022.62 1022.45 1022.22 1021.95 1021.67 1021.39 1021.11 1020.85
1021.41 1021.24 1021.05 1020.92 1020.92 1021.09 1021.43 1021.90 1022.40 1022.85 1023.13 1023.18 1022.96 1022.49 1021.82 1021.04 1020.25 1019.57 1019.05 1018.77 1018.71 1018.86 1019.18 1019.59 1020.04 1020.48 1020.89 1021.26 1021.57 1021.85 1022.09 1022.31 1022.50 1022.64 1022.71 1022.71 1022.63 1022.46 1022.21 1021.91 1021.59 1021.26 1020.96 1020.68
1021.65 1021.40 1021.16 1021.03 1021.10 1021.40 1021.90 1022.53 1023.18 1023.70 1023.96 1023.89 1023.44 1022.65 1021.59 1020.41 1019.25 1018.25 1017.53 1017.14 1017.09 1017.35 1017.84 1018.46 1019.14 1019.78 1020.35 1020.83 1021.23 1021.55 1021.82 1022.06 1022.27 1022.45 1022.56 1022.60 1022.54 1022.38 1022.13 1021.80 1021.44 1021.07 1020.73 1020.44
1021.91 1021.60 1021.35 1021.28 1021.45 1021.90 1022.58 1023.37 1024.12 1024.67 1024.86 1024.61 1023.88 1022.73 1021.27 1019.68 1018.16 1016.88 1015.97 1015.50 1015.48 1015.85 1016.51 1017.34 1018.21 1019.03 1019.74 1020.31 1020.76 1021.12 1021.41 1021.67 1021.90 1022.11 1022.27 1022.35 1022.33 1022.19 1021.94 1021.60 1021.21 1020.80 1020.43 1020.12
1022.18 1021.84 1021.61 1021.62 1021.93 1022.53 1023.35 1024.26 1025.07 1025.59 1025.65 1025.18 1024.15 1022.64 1020.80 1018.86 1017.03 1015.52 1014.48 1013.97 1014.00 1014.48 1015.30 1016.29 1017.32 1018.27 1019.06 1019.69 1020.17 1020.54 1020.84 1021.11 1021.38 1021.63 1021.84 1021.97 1022.00 1021.89 1021.65 1021.30 1020.88 1020.45 1020.04 1019.70
1022.45 1022.10 1021.93 1022.03 1022.46 1023.19 1024.12 1025.09 1025.88 1026.30 1026.19 1025.47 1024.13 1022.30 1020.15 1017.93 1015.89 1014.24 1013.14 1012.65 1012.76 1013.35 1014.29 1015.40 1016.53 1017.54 1018.37 1019.01 1019.48 1019.83 1020.13 1020.41 1020.70 1021.00 1021.27 1021.46 1021.54 1021.47 1021.25 1020.90 1020.47 1020.00 1019.56 1019.18
1022.67 1022.35 1022.24 1022.43 1022.96 1023.77 1024.75 1025.70 1026.42 1026.69 1026.36 1025.38 1023.78 1021.69 1019.32 1016.93 1014.79 1013.11 1012.04 1011.62 1011.82 1012.52 1013.55 1014.72 1015.88 1016.89 1017.70 1018.30 1018.72 1019.04 1019.32 1019.61 1019.93 1020.27 1020.60 1020.85 1020.98 1020.95 1020.75 1020.41 1019.96 1019.46 1018.98 1018.57
1022.78 1022.51 1022.48 1022.75 1023.35 1024.19 1025.15 1026.02 1026.59 1026.66 1026.11 1024.89 1023.08 1020.82 1018.33 1015.90 1013.78 1012.18 1011.21 1010.91 1011.22 1012.01 1013.09 1014.27 1015.39 1016.34 1017.08 1017.60 1017.95 1018.22 1018.48 1018.77 1019.12 1019.50 1019.87 1020.18 1020.35 1020.35 1020.17 1019.82 1019.35 1018.83 1018.32 1017.87
1022.73 1022.53 1022.58 1022.92 1023.55 1024.38 1025.25 1025.98 1026.35 1026.21 1025.43 1024.03 1022.07 1019.73 1017.25 1014.89 1012.90 1011.45 1010.65 1010.51 1010.93 1011.78 1012.87 1014.01 1015.05 1015.89 1016.52 1016.93 1017.21 1017.42 1017.66 1017.95 1018.32 1018.73 1019.14 1019.48 1019.68 1019.69 1019.51 1019.15 1018.66 1018.11 1017.57 1017.09
1022.47 1022.35 1022.47 1022.86 1023.49 1024.25 1025.01 1025.56 1025.72 1025.35 1024.39 1022.84 1020.82 1018.50 1016.12 1013.93 1012.15 1010.93 1010.34 1010.35 1010.88 1011.76 1012.81 1013.87 1014.79 1015.51 1016.01 1016.32 1016.52 1016.69 1016.90 1017.20 1017.58 1018.01 1018.44 1018.78 1018.97 1018.98 1018.78 1018.40 1017.89 1017.32 1016.76 1016.26
1021.94 1021.91 1022.09 1022.51 1023.10 1023.78 1024.38 1024.74 1024.70 1024.15 1023.05 1021.43 1019.43 1017.22 1015.02 1013.07 1011.55 1010.57 1010.19 1010.34 1010.94 1011.81 1012.80 1013.75 1014.54 1015.12 1015.50 1015.73 1015.87 1016.02 1016.23 1016.53 1016.92 1017.36 1017.77 1018.09 1018.26 1018.22 1017.99 1017.58 1017.06 1016.47 1015.90 1015.39
1021.17 1021.20 1021.41 1021.82 1022.37 1022.93 1023.38 1023.57 1023.36 1022.67 1021.49 1019.89 1017.98 1015.94 1013.98 1012.31 1011.05 1010.32 1010.11 1010.37 1010.99 1011.82 1012.71 1013.53 1014.19 1014.66 1014.95 1015.12 1015.25 1015.40 1015.63 1015.95 1016.34 1016.76 1017.14 1017.41 1017.52 1017.43 1017.15 1016.71 1016.17 1015.58 1015.02 1014.52
1020.18 1020.22 1020.44 1020.81 1021.28 1021.73 1022.04 1022.08 1021.75 1020.99 1019.82 1018.29 1016.54 1014.73 1013.04 1011.63 1010.63 1010.10 1010.02 1010.33 1010.93 1011.68 1012.45 1013.14 1013.68 1014.06 1014.30 1014.47 1014.62 1014.81 1015.08 1015.42 1015.82 1016.21 1016.53 1016.74 1016.77 1016.61 1016.27 1015.80 1015.24 1014.67 1014.13 1013.65
1019.05 1019.07 1019.23 1019.53 1019.89 1020.21 1020.40 1020.34 1019.95 1019.19 1018.09 1016.71 1015.17 1013.61 1012.19 1011.04 1010.25 1009.86 1009.85 1010.16 1010.69 1011.32 1011.96 1012.53 1012.97 1013.31 1013.55 1013.75 1013.96 1014.22 1014.54 1014.92 1015.32 1015.67 1015.93 1016.05 1015.99 1015.75 1015.36 1014.85 1014.30 1013.74 1013.22 1012.78
1017.92 1017.83 1017.89 1018.06 1018.29 1018.50 1018.58 1018.46 1018.06 1017.36 1016.38 1015.20 1013.90 1012.61 1011.45 1010.52 1009.89 1009.59 1009.59 1009.84 1010.25 1010.75 1011.26 1011.72 1012.10 1012.42 1012.70 1012.97 1013.28 1013.62 1014.02 1014.43 1014.81 1015.12 1015.31 1015.33 1015.18 1014.87 1014.42 1013.89 1013.33 1012.79 1012.31 1011.89
1016.91 1016.67 1016.56 1016.57 1016.65 1016.72 1016.72 1016.56 1016.19 1015.60 1014.79 1013.83 1012.79 1011.75 1010.82 1010.07 1009.56 1009.29 1009.25 1009.40 1009.69 1010.04 1010.42 1010.79 1011.14 1011.48 1011.82 1012.19 1012.59 1013.03 1013.49 1013.93 1014.30 1014.55 1014.66 1014.59 1014.35 1013.96 1013.46 1012.90 1012.35 1011.83 1011.37 1010.97
1016.18 1015.74 1015.43 1015.24 1015.14 1015.07 1014.98 1014.80 1014.49 1014.02 1013.40 1012.66 1011.86 1011.06 1010.33 1009.72 1009.27 1009.00 1008.89 1008.93 1009.07 1009.29 1009.56 1009.87 1010.21 1010.57 1010.99 1011.45 1011.95 1012.47 1012.98 1013.42 1013.76 1013.95 1013.97 1013.81 1013.48 1013.02 1012.47 1011.89 1011.33 1010.82 1010.37 1009.98
1015.84 1015.17 1014.63 1014.23 1013.93 1013.72 1013.54 1013.34 1013.08 1012.73 1012.28 1011.75 1011.17 1010.57 1009.99 1009.48 1009.07 1008.77 1008.58 1008.50 1008.53 1008.63 1008.82 1009.09 1009.42 1009.83 1010.31 1010.85 1011.42 1011.99 1012.51 1012.93 1013.21 1013.32 1013.25 1012.99 1012.58 1012.05 1011.46 1010.86 1010.28 1009.77 1009.31 1008.90
1015.91 1015.03 1014.27 1013.65 1013.16 1012.79 1012.51 1012.28 1012.05 1011.79 1011.48 1011.12 1010.70 1010.25 1009.80 1009.36 1008.96 1008.63 1008.38 1008.21 1008.14 1008.17 1008.31 1008.55 1008.90 1009.34 1009.87 1010.45 1011.05 1011.61 1012.10 1012.46 1012.66 1012.67 1012.49 1012.13 1011.64 1011.05 1010.41 1009.78 1009.19 1008.65 1008.16 1007.72
1016.34 1015.29 1014.33 1013.50 1012.83 1012.32 1011.93 1011.64 1011.41 1011.20 1010.98 1010.73 1010.43 1010.08 1009.71 1009.32 1008.93 1008.59 1008.29 1008.08 1007.96 1007.96 1008.08 1008.32 1008.68 1009.15 1009.69 1010.27 1010.84 1011.36 1011.76 1012.02 1012.09 1011.99 1011.69 1011.24 1010.67 1010.02 1009.34 1008.67 1008.04 1007.46 1006.93 1006.44
1016.97 1015.79 1014.68 1013.70 1012.87 1012.22 1011.72 1011.36 1011.10 1010.90 1010.71 1010.51 1010.27 1009.99 1009.66 1009.31 1008.95 1008.61 1008.31 1008.10 1007.98 1007.99 1008.12 1008.38 1008.76 1009.23 1009.75 1010.29 1010.78 1011.20 1011.47 1011.59 1011.52 1011.28 1010.86 1010.31 1009.66 1008.95 1008.23 1007.52 1006.85 1006.23 1005.64 1005.08
1017.56 1016.32 1015.13 1014.04 1013.10 1012.34 1011.74 1011.30 1010.98 1010.74 1010.54 1010.35 1010.13 1009.87 1009.57 1009.25 1008.92 1008.62 1008.37 1008.20 1008.14 1008.19 1008.37 1008.67 1009.06 1009.52 1009.99 1010.44 1010.82 1011.09 1011.20 1011.15 1010.92 1010.53 1009.99 1009.34 1008.62 1007.86 1007.09 1006.35 1005.63 1004.95 1004.31 1003.68
1017.87 1016.63 1015.42 1014.29 1013.29 1012.45 1011.78 1011.27 1010.88 1010.59 1010.34 1010.12 1009.88 1009.63 1009.35 1009.07 1008.80 1008.56 1008.39 1008.31 1008.34 1008.48 1008.73 1009.07 1009.46 1009.89 1010.29 1010.62 1010.86 1010.96 1010.89 1010.66 1010.27 1009.73 1009.08 1008.34 1007.55 1006.73 1005.93 1005.14 1004.38 1003.65 1002.94 1002.25
1017.68 1016.50 1015.32 1014.21 1013.21 1012.34 1011.64 1011.07 1010.63 1010.27 1009.98 1009.71 1009.45 1009.20 1008.94 1008.71 1008.51 1008.37 1008.32 1008.36 1008.50 1008.74 1009.06 1009.44 1009.84 1010.22 1010.53 1010.74 1010.81 1010.73 1010.49 1010.08 1009.53 1008.86 1008.11 1007.29 1006.44 1005.58 1004.73 1003.90 1003.10 1002.31 1001.54 1000.79
1016.86 1015.77 1014.68 1013.64 1012.69 1011.86 1011.15 1010.57 1010.10 1009.70 1009.37 1009.07 1008.80 1008.55 1008.34 1008.17 1008.06 1008.04 1008.11 1008.28 1008.55 1008.89 1009.28 1009.69 1010.08 1010.39 1010.60 1010.68 1010.60 1010.35 1009.94 1009.38 1008.70 1007.92 1007.08 1006.19 1005.30 1004.40 1003.51 1002.63 1001.77 1000.92 1000.09 999.28
1015.41 1014.44 1013.46 1012.53 1011.68 1010.93 1010.27 1009.72 1009.25 1008.85 1008.51 1008.21 1007.95 1007.73 1007.57 1007.49 1007.49 1007.59 1007.78 1008.08 1008.45 1008.88 1009.32 1009.74 1010.09 1010.33 1010.44 1010.39 1010.16 1009.77 1009.22 1008.54 1007.75 1006.89 1005.99 1005.06 1004.12 1003.17 1002.24 1001.31 1000.38 999.46 998.56 997.69
Thickness
5572 5564 5561 5566 5570 5573 5570 5567 5566 5570 5574 5573 5573 5577 5584 5587 5586 5584 5583 5583 5584 5587 5589 5589 5589 5588 5588 5587 5587 5586 5585 5584 5583 5581 5579 5578 5576 5576 5575 5575 5575 5575 5575 5574
5554 5553 5560 5562 5561 5562 5560 5556 5555 5559 5565 5564 5563 5567 5574 5577 5579 5580 5580 5579 5578 5578 5578 5580 5580 5579 5578 5578 5578 5577 5577 5575 5575 5573 5571 5569 5567 5566 5566 5565 5565 5565 5565 5565
5546 5550 5555 5553 5551 5550 5550 5548 5548 5548 5552 5553 5551 5555 5562 5569 5571 5573 5573 5574 5573 5573 5572 5572 5571 5571 5570 5569 5569 5570 5568 5567 5566 5564 5561 5559 5557 5555 5554 5555 5555 5555 5555 5555
5536 5542 5545 5542 5540 5540 5539 5544 5542 5540 5533 5527 5535 5529 5550 5557 5560 5563 5563 5563 5563 5565 5565 5565 5564 5563 5562 5562 5561 5560 5559 5558 5556 5554 5552 5549 5548 5546 5546 5545 5544 5544 5544 5544
5527 5532 5532 5532 5534 5533 5531 5534 5531 5529 5521 5513 5518 5515 5535 5545 5550 5556 5558 5557 5556 5556 5556 5556 5556 5556 5555 5554 5552 5551 5550 5548 5547 5545 5543 5541 5539 5537 5535 5534 5533 5533 5533 5533
5520 5524 5525 5526 5528 5526 5522 5519 5514 5503 5498 5499 5511 5507 5525 5533 5546 5551 5552 5550 5549 5548 5547 5547 5547 5546 5544 5543 5542 5541 5540 5539 5538 5536 5534 5532 5529 5527 5525 5524 5523 5522 5522 5522
5506 5512 5516 5518 5513 5513 5510 5498 5488 5485 5478 5492 5505 5505 5522 5538 5542 5544 5544 5542 5540 5538 5536 5535 5535 5535 5534 5533 5532 5531 5530 5529 5528 5526 5524 5522 5520 5519 5517 5515 5513 5512 5512 5512
5490 5493 5503 5506 5505 5500 5498 5494 5483 5483 5479 5487 5496 5498 5520 5531 5533 5534 5534 5531 5529 5526 5525 5525 5525 5525 5524 5524 5523 5522 5521 5520 5518 5517 5515 5513 5512 5510 5509 5507 5505 5504 5503 5503
5482 5486 5494 5497 5500 5498 5490 5482 5484 5472 5465 5468 5482 5494 5513 5523 5521 5521 5520 5517 5515 5515 5515 5514 5514 5514 5514 5514 5513 5512 5511 5510 5509 5508 5506 5504 5503 5502 5500 5499 5497 5495 5494 5494
5478 5471 5480 5485 5490 5488 5486 5479 5466 5464 5466 5473 5483 5486 5497 5505 5506 5507 5506 5504 5503 5504 5504 5503 5503 5503 5504 5504 5503 5502 5501 5501 5500 5499 5497 5496 5494 5493 5491 5489 5488 5487 5485 5484
5470 5460 5463 5469 5472 5473 5473 5469 5464 5454 5455 5462 5467 5483 5497 5497 5498 5495 5494 5492 5490 5491 5491 5491 5491 5492 5493 5494 5493 5492 5491 5491 5490 5489 5488 5487 5485 5484 5482 5481 5480 5478 5477 5476
5458 5447 5444 5454 5463 5466 5465 5463 5456 5452 5447 5447 5452 5474 5495 5492 5488 5486 5484 5482 5481 5480 5480 5480 5480 5481 5482 5483 5483 5482 5481 5481 5481 5480 5479 5477 5476 5475 5473 5472 5471 5470 5469 5468
5451 5440 5437 5447 5449 5450 5451 5451 5449 5443 5436 5432 5440 5465 5483 5479 5477 5476 5473 5472 5471 5470 5469 5469 5469 5469 5470 5471 5472 5472 5471 5471 5471 5471 5470 5468 5467 5465 5464 5463 5462 5461 5461 5460
5447 5432 5437 5448 5451 5442 5440 5442 5440 5434 5429 5430 5442 5458 5470 5470 5466 5465 5463 5461 5460 5459 5460 5459 5458 5458 5459 5460 5460 5461 5461 5461 5461 5460 5459 5458 5458 5457 5456 5455 5454 5453 5453 5453
5435 5424 5423 5432 5438 5435 5436 5437 5435 5430 5430 5431 5444 5446 5460 5461 5456 5455 5453 5452 5452 5451 5450 5449 5448 5448 5449 5449 5450 5451 5451 5451 5451 5451 5450 5449 5449 5448 5447 5446 5446 5445 5445 5445
5419 5415 5414 5420 5428 5427 5429 5433 5432 5431 5429 5428 5436 5444 5454 5452 5447 5444 5442 5441 5442 5442 5441 5441 5440 5440 5440 5439 5440 5441 5442 5442 5442 5441 5441 5440 5440 5439 5438 5437 5437 5436 5436 5437
5404 5402 5405 5411 5414 5418 5421 5430 5430 5428 5427 5428 5432 5442 5442 5440 5439 5436 5434 5433 5432 5432 5432 5431 5431 5431 5431 5431 5431 5431 5433 5433 5432 5432 5431 5431 5431 5430 5429 5429 5428 5429 5428 5428
5397 5394 5389 5392 5399 5405 5435 5431 5431 5428 5427 5423 5426 5428 5429 5430 5429 5427 5426 5424 5423 5423 5422 5422 5422 5422 5422 5421 5422 5422 5423 5423 5423 5422 5422 5422 5422 5421 5421 5420 5420 5421 5421 5420
5397 5391 5383 5381 5387 5402 5423 5424 5418 5414 5417 5419 5418 5419 5418 5419 5419 5419 5419 5417 5415 5414 5413 5412 5412 5412 5412 5412 5413 5413 5413 5413 5413 5413 5413 5413 5413 5412 5412 5412 5412 5412 5413 5413
5385 5385 5380 5375 5383 5393 5420 5419 5414 5411 5407 5414 5409 5409 5407 5407 5406 5412 5412 5408 5407 5406 5404 5403 5403 5403 5402 5403 5403 5403 5403 5403 5403 5404 5404 5404 5404 5404 5404 5404 5404 5404 5405 5406
5374 5372 5373 5373 5376 5391 5406 5404 5406 5400 5407 5406 5402 5401 5398 5396 5398 5400 5399 5398 5397 5396 5395 5395 5394 5393 5393 5393 5394 5394 5394 5394 5395 5395 5396 5396 5396 5396 5396 5396 5396 5396 5397 5397
5375 5369 5367 5366 5371 5390 5398 5393 5394 5396 5395 5393 5392 5392 5389 5388 5388 5388 5388 5387 5387 5386 5386 5385 5384 5384 5384 5384 5384 5384 5385 5385 5385 5386 5387 5387 5387 5387 5387 5387 5387 5388 5388 5389
5371 5377 5376 5377 5387 5390 5386 5386 5386 5384 5383 5383 5381 5381 5380 5378 5378 5378 5378 5377 5376 5376 5376 5375 5375 5374 5375 5375 5375 5375 5376 5377 5377 5377 5377 5377 5378 5378 5378 5378 5379 5379 5380 5381
5364 5365 5364 5365 5376 5376 5375 5376 5376 5375 5374 5374 5373 5372 5371 5369 5369 5368 5368 5367 5367 5367 5366 5366 5365 5365 5366 5366 5367 5367 5368 5368 5368 5368 5368 5368 5368 5369 5370 5370 5371 5371 5372 5373
5363 5357 5356 5358 5364 5364 5368 5367 5367 5367 5365 5364 5364 5363 5361 5360 5360 5359 5358 5358 5357 5358 5357 5356 5355 5355 5356 5357 5358 5359 5359 5359 5359 5359 5359 5359 5360 5361 5361 5362 5362 5363 5364 5365
5355 5354 5355 5362 5363 5358 5361 5360 5358 5357 5356 5355 5354 5353 5352 5351 5350 5350 5349 5348 5348 5347 5347 5346 5346 5346 5347 5348 5350 5351 5351 5351 5351 5352 5352 5352 5352 5353 5353 5353 5354 5355 5356 5358